Regional Weather Roundup
Issued by NWS

Home | Current Version | Previous Version | Graphics & Text | Print | Product List | Glossary On
Versions: 1 2 3 4 5 6 7 8 9 10 11 12 13 14 15 16 17 18 19 20 21 22 23 24 25 26 27 28 29 30 31 32 33 34 35 36 37 38 39 40 41 42 43 44 45 46 47 48 49 50
000
ASUS45 KTFX 170710
RWRMT
MONTANA REGIONAL WEATHER ROUNDUP
NATIONAL WEATHER SERVICE GREAT FALLS MT
100 AM MDT THU AUG 17 2017

NOTE: "FAIR" INDICATES FEW OR NO CLOUDS BELOW 12000 FEET WITH NO
SIGNIFICANT WEATHER AND/OR OBSTRUCTIONS TO VISIBILITY.

MTZ001>007-043-170800-
WEST OF THE DIVIDE

CITY           SKY/WX    TMP DP  RH WIND       PRES   REMARKS
KALISPELL      PTCLDY    59  42  53 S3        29.95R
MISSOULA       PTCLDY    60  39  45 CALM      30.00S
BUTTE          CLOUDY    51  31  46 SE5       30.12R
MULLAN PASS    CLEAR     56  33  42 W5        30.14S
DEER LODGE       N/A     57  34  41 CALM      30.09R
EUREKA           N/A     66  39  37 MISG      29.93S
HAMILTON         N/A     57  39  51 CALM      30.04R
LIBBY            N/A     63  39  42 CALM      29.93S
PLAINS           N/A     58  41  53 MISG      29.98S
RONAN            N/A     55  45  69 CALM      30.03S
$$

MTZ008-052>055-170800-
SOUTHWEST MONTANA

CITY           SKY/WX    TMP DP  RH WIND       PRES   REMARKS
BOZEMAN        CLOUDY    56  45  66 S6        30.04R
DILLON         CLOUDY    63  37  38 CALM      30.07R
W YELLOWSTONE  CLOUDY    48  39  71 CALM      30.17S
ENNIS          CLOUDY    59  46  63 CALM      30.12S
THREE FORKS      N/A     54  40  59 CALM      30.02R
TWIN BRIDGES     N/A     60  34  37 CALM      30.05R
$$

MTZ009-010-012-014-046-048-049-054-170800-
EAST SLOPES AND CENTRAL MONTANA

CITY           SKY/WX    TMP DP  RH WIND       PRES   REMARKS
CUT BANK       MOCLDY    58  37  45 W9        29.94R
GREAT FALLS    CLEAR     60  29  30 W3        29.95S
MALMSTROM AFB  PTCLDY    62  31  31 SW9       29.94S
HELENA         CLEAR     65  33  30 CALM      30.01R HAZE
AUGUSTA          N/A     64  29  27 W5        29.99
BOWMANS CRNR     N/A     62  29  28 W6        29.98R
CHOTEAU          N/A     59  34  38 SW7       29.98R
FAIRFIELD        N/A     58  33  38 CALM      29.95S
POWER            N/A     58  31  36 W6        29.94F
RAYNESFORD       N/A     54  30  39 E5        29.98S
ULM              N/A     56  29  35 SE5       29.96R
$$

MTZ011-013-016-021-045-047-050-051-170800-
NORTH CENTRAL MONTANA

CITY           SKY/WX    TMP DP  RH WIND       PRES   REMARKS
HAVRE          CLEAR     54  34  46 SW3       29.86F
LEWISTOWN      CLOUDY    57  30  35 SE3       29.97S
N BAR RANCH    CLOUDY    57  28  33 W7        30.01S
CHINOOK          N/A     55  43  62 CALM      29.86S
DENTON           N/A     57  28  32 SW8       29.91R
GEYSER           N/A     61  27  27 SW13      29.97R
GRASS RANGE      N/A     59  28  30 W5        29.92S
JUDITH GAP       N/A     54  28  36 S14       30.00S
WINIFRED         N/A     66  28  24 SW5       29.93
$$

MTZ017>020-022>027-061-062-170800-
NORTHEAST MONTANA

CITY           SKY/WX    TMP DP  RH WIND       PRES   REMARKS
GLASGOW        CLOUDY    62  44  51 NE6       29.82R
JORDAN           N/A     59  35  40 W6        29.85R
SIDNEY         CLEAR     62  53  72 S6        29.84F
WOLF POINT     CLEAR     63  49  60 E6        29.81S
MALTA          CLEAR     54  43  66 CALM      29.84S
PLENTYWOOD       N/A     68  55  64 SE12      29.84F
POPLAR           N/A     63  52  67 N6        29.82S
$$

MTZ028>42-056>058-170800-
SOUTHCENTRAL AND SOUTHEAST MONTANA

CITY           SKY/WX    TMP DP  RH WIND       PRES   REMARKS
BAKER          CLEAR     59  49  69 SE10      29.90F
BILLINGS       CLEAR     65  37  35 CALM      29.93R
LIVINGSTON     CLEAR     61  38  42 CALM      30.02R
MILES CITY     CLEAR     67  41  38 SE7       29.84S
BIG TIMBER     PTCLDY    63  39  42 W6        30.02S
FORSYTH          N/A     72  34  25 CALM      29.85R
HARLOWTON        N/A     61  26  26 MISG      29.99F
LAUREL           N/A     64  38  38 CALM      29.93S
$$

REGIONAL REPORTS...DAKOTAS

CITY           SKY/WX    TMP DP  RH WIND       PRES   REMARKS
WILLISTON      CLOUDY    71  55  56 NE5       29.87R
MINOT          PTCLDY    61  53  75 SE3       29.88R
DICKINSON      CLEAR     58  53  84 SE8       29.91S
BEACH            N/A     59  50  72 SE14      29.92F
CROSBY         MOCLDY    66  52  59 S9        29.86S
TIOGA          CLOUDY    64  57  77 S13       29.90F
WATFORD CITY     N/A     64  54  68 E8        29.86F
BISMARCK       CLEAR     56  54  93 CALM      29.92R
GRAND FORKS    CLOUDY    59  59 100 NW8       29.82S
FARGO          CLOUDY    64  63  96 N15       29.77F
BUFFALO SD       N/A     60  49  66 S12       29.88F
RAPID CITY     CLEAR     56  51  84 SE6       29.99S
$$

REGIONAL REPORTS...WYOMING/IDAHO/WASHINGTON

CITY           SKY/WX    TMP DP  RH WIND       PRES   REMARKS
GILLETTE       CLOUDY    66  37  34 S14       29.99F
SHERIDAN       CLOUDY    64  45  49 S3        29.95F
BUFFALO WY     MOCLDY    65  34  31 SW5       30.03F
CODY           CLOUDY    64  43  46 S7        30.06S
YELLOWSTONE LA   N/A     43  40  89 CALM      30.27F
IDAHO FALLS    CLOUDY    64  41  42 S12       30.06S
SALMON         CLEAR     62  38  40 VRB3      30.05R
BOISE          CLEAR     67  37  33 CALM      29.99R
SPOKANE        PTCLDY    70  43  37 S5        29.94S
$$

REGIONAL REPORTS...ALBERTA

CITY           SKY/WX    TMP DP  RH WIND       PRES   REMARKS
EDMONTON       CLOUDY    59  52  77 W6        29.89R
CALGARY        MOCLDY    59  46  63 N12       29.96R SMOKE
LETHBRIDGE     PTCLDY    63  41  45 SW9       29.87S
MEDICINE HAT   PTCLDY    61  52  72 CALM      29.84R
$$

REGIONAL REPORTS...SASKATCHEWAN

CITY           SKY/WX    TMP DP  RH WIND       PRES   REMARKS
SWIFT CURRENT  CLOUDY    59  41  51 E10       29.86S
REGINA         PTCLDY    66  43  42 NE15      29.86F
SASKATOON      CLOUDY    59  46  63 S7        29.85S
$$



USA.gov is the U.S. government's official web portal to all federal, state and local government web resources and services.